Home > Weather > Speyer > Past weeks

Flag for Germany Weather for the Past 2 Weeks in Speyer, Rhineland-Palatinate, Germany

Now
45 °F

Partly cloudy.


Feels Like: 38 °F
Forecast: 38 / 43 °F
Wind: 14 mph from Southwest

Location: Ramstein

Current Time: Feb 9, 2016 at 2:46:39 AM

Latest Report: Feb 9, 2016 at 1:58 AM


Visibility: N/A

Pressure: 29.67 "Hg

Humidity: 80%

Dew point: 39 °F

Location of SpeyerLocation

Historic Weather in Speyer — Graph

°F

Speyer Temperature Yesterday

Maximum temperature yesterday: 47 °F (at 11:58 AM)
Minimum temperature yesterday: 41 °F (at 5:58 PM)
Average temperature yesterday: 45 °F

High & Low Weather Summary for the Past Weeks

 TemperatureHumidityPressure
High59 °F (Jan 25, 3:58 PM)100% (Jan 25, 12:58 AM)30.47 "Hg (Jan 25, 12:58 AM)
Low32 °F (Feb 5, 3:58 AM)55% (Feb 6, 3:58 PM)29.47 "Hg (Feb 8, 12:59 PM)
Average45 °F87%30.10 "Hg
* Reported Jan 25 12:58 AM — Feb 9 12:58 AM, Speyer, Weather by CustomWeather, © 2016

Note: Actual official high and low records may vary slightly from our data, if they occured in-between our weather recording intervals... More about our weather records

Advertising

Speyer Weather History for the Previous 24 Hours

 ConditionsComfort  
Time TempWeatherWind HumidityBarometerVisibility
12:58 AM
Tue, Feb 9
43 °FMostly cloudy.10 mph87%29.68 "HgN/A
11:58 PM
Mon, Feb 8
45 °FPassing clouds.17 mph74%29.67 "HgN/A
10:58 PM43 °FPassing clouds.16 mph81%29.66 "HgN/A
10:03 PM41 °FPassing clouds.17 mph87%29.62 "HgN/A
9:58 PM41 °FLight rain. Passing clouds.22 mph93%29.65 "HgN/A
8:58 PM43 °FPassing clouds.16 mph76%29.63 "HgN/A
7:58 PM44 °FPassing clouds.18 mph80%29.61 "HgN/A
6:58 PM43 °FClear.15 mph79%29.60 "HgN/A
5:58 PM41 °FPassing clouds.14 mph87%29.58 "HgN/A
5:01 PM43 °FStrong thunderstorms. Fog.40 mph93%29.57 "Hg1 mi
3:58 PM45 °FLight rain. More clouds than sun.21 mph90%29.53 "HgN/A
2:58 PM46 °FPartly sunny.12 mph82%29.49 "HgN/A
2:04 PM46 °FBroken clouds.13 mph87%29.48 "HgN/A
1:58 PM46 °FLight rain. More clouds than sun.16 mph93%29.50 "HgN/A
12:59 PM46 °FLight rain. Broken clouds.16 mph87%29.47 "HgN/A
12:01 PM46 °FRain. Fog.15 mph93%29.48 "Hg3 mi
11:58 AM47 °FRain. Fog.16 mph92%29.50 "Hg4 mi
11:00 AM46 °FRain. Fog.13 mph93%29.49 "Hg5 mi
9:58 AM46 °FFog.17 mph90%29.52 "Hg6 mi
9:03 AM46 °FPartly sunny.16 mph82%29.51 "HgN/A
8:58 AM46 °FLight rain. Partly sunny.18 mph82%29.54 "HgN/A
7:58 AM45 °FLight rain. Mostly cloudy.20 mph81%29.55 "HgN/A
6:58 AM46 °FPassing clouds.15 mph72%29.56 "HgN/A
5:58 AM46 °FOvercast.15 mph72%29.60 "HgN/A
4:58 AM44 °FPartly cloudy.16 mph77%29.63 "HgN/A
3:58 AM44 °FLight rain. Passing clouds.14 mph76%29.66 "HgN/A
2:58 AM43 °FOvercast.15 mph76%29.70 "HgN/A
Weather by CustomWeather, © 2016

See weather overviewHow to use our weather pages